Other Public Products
Issued by NWS Grand Forks, ND

Home | Current Version | Previous Version | Graphics & Text | Print | Product List | Glossary On
Versions: 1 2 3 4 5 6 7 8 9 10 11 12 13 14 15 16 17 18 19 20 21 22 23 24 25 26 27 28 29 30 31 32 33 34 35 36 37 38 39 40 41 42 43 44 45 46 47 48 49 50
675
FPUS83 KFGF 191110
OPUFGF
PRAIRIE TO PINES WEATHER ROUNDUP
NATIONAL WEATHER SERVICE EASTERN NORTH DAKOTA/GRAND FORKS ND
600 AM CDT SAT AUG 19 2017

 **SATELLITE DATA USED TO AUGMENT SKY COVER AT AUTOMATED STATIONS**
 *****  WEATHER ACROSS EASTERN NORTH DAKOTA  *****

CITY           SKY/WX    TMP DP  RH WIND       PRES   REMARKS
GRAND FORKS    FAIR      55  54  96 SW8       29.82F
GRAND FORKS AF FAIR      56  53  90 SW7       29.83S
GRAND CITY NWS NOT AVBL
BUXTON           N/A     57  56  97 SW5         N/A
DEVILS LAKE    FAIR      65  55  70 SW10      29.84F
FARGO          FAIR      59  57  93 S7        29.87S
WAHPETON ARPT  FAIR      54  50  87 CALM      29.90S
$$

 *****  WEATHER ACROSS CENTRAL AND WESTERN NORTH DAKOTA  *****

CITY           SKY/WX    TMP DP  RH WIND       PRES   REMARKS
JAMESTOWN      FAIR      58  54  86 SW5       29.87S
BISMARCK       FAIR      58  56  93 E6        29.86F
MINOT          FAIR      68  54  60 S15G25    29.78F
MINOT AFB      FAIR      65  54  67 SW13      29.75F
GARRISON         N/A     59  55  87 CALM      29.82F
WILLISTON      FAIR      61  52  72 S6        29.75F
DICKINSON      FAIR      58  52  80 S12       29.80F
HETTINGER      FAIR      59  50  72 S6        29.86F
$$

 *****  OTHER OBSERVATIONS NORTHEAST NORTH DAKOTA  *****

CITY           SKY/WX    TMP DP  RH WIND       PRES   REMARKS
WALHALLA       FAIR      57  59 100 CALM      29.80S
LANGDON        FAIR      54  54 100 S7        29.84S
CAVALIER       FAIR      54  52  94 CALM      29.80S
GRAFTON        FAIR      52  52 100 SW7       29.83S
CANDO          FAIR      54  54 100 CALM      29.84F
FORT TOTTEN      N/A     61  53  75 S6        29.95S
ROLLA          FAIR      57  55  94 SW14      29.82F
RUGBY          CLOUDY    59  55  88 S8        29.80F
 ***** THE ABOVE OBSERVATIONS ARE NON NWS ARE NOT QUALITY
        CONTROLLED AND MAY MIS-REPORT RAIN FOR SNOW...
$$

 *****  OTHER OBSERVATIONS SOUTHEAST NORTH DAKOTA *****

CITY           SKY/WX    TMP DP  RH WIND       PRES   REMARKS
COOPERSTOWN    FAIR      52  52 100 S3        29.87S
VALLEY CITY      N/A     54  54 100 S6        29.89S
OAKES          NOT AVBL
GWINNER        SUNNY     54  54 100 CALM      29.90S
SHEYENNE NWR     N/A     55  55 100 W5        29.95S
BUFFALO          N/A     58  55  89 NE6         N/A
WYNDMERE       NOT AVBL
 ***** THE ABOVE OBSERVATIONS ARE NON NWS ARE NOT QUALITY
       CONTROLLED AND MAY MIS-REPORT RAIN FOR SNOW...
$$

  *****  WEATHER ACROSS NORTHERN MINNESOTA  *****

CITY           SKY/WX    TMP DP  RH WIND       PRES   REMARKS
FLAG ISLAND    FAIR      64  54  68 CALM      29.80S
WARROAD        FAIR      55  52  88 CALM      29.83S
ROSEAU         FAIR      54  48  82 CALM      29.83S
HALLOCK        FAIR      52  52 100 SE8       29.81S
THF RVR FALLS  FAIR      55  54  96 S6        29.87R
HALSTAD        NOT AVBL
FOSSTON        FAIR      54  52  94 S6        29.89R FOG
BAUDETTE       FAIR      52  52 100 CALM      29.83S FOG
WASKISH        FAIR      55  54  94 CALM      29.86R
CROOKSTON      FAIR      54  52  94 SE6       29.86R
$$
  *****  WEATHER ACROSS CENTRAL AND WEST MINNESOTA  *****

CITY           SKY/WX    TMP DP  RH WIND       PRES   REMARKS
BEMIDJI        FAIR      58  56  95 SW5       29.88R
PARK RAPIDS    CLOUDY    53  50  89 CALM      29.90R FOG
WADENA         FAIR      55  55 100 CALM      29.91R FOG
DETROIT LAKES  FAIR      57  55  94 S5        29.91S FOG
MOORHEAD       FAIR      55  55 100 SE6       29.89R
FERGUS FALLS   FAIR      57  57 100 SE3       29.91R
ELBOW LAKE     FAIR      57  57 100 CALM      29.92R
MORRIS MN      FOG       54  54 100 S3        29.91R VSB<1/4
STAPLES        FAIR      54  54 100 CALM      29.91R
WHEATON        FAIR      55  52  88 CALM      29.92S
$$
  *****  WEATHER ELSEWHERE ACROSS MINNESOTA  *****

CITY           SKY/WX    TMP DP  RH WIND       PRES   REMARKS
DULUTH         FAIR      57  57 100 NW6       29.88R
INTRNTL FALLS  FOG       50  48  93 CALM      29.85R VSB 1/4
ELY            FAIR      54  54 100 CALM      29.86R
CLOQUET        FAIR      57  55  94 W5        29.89R
BRAINERD       FAIR      55  55 100 CALM      29.91R FOG
HIBBING        FAIR      46  46 100 SE3       29.87S FOG
ALEXANDRIA     FAIR      53  53 100 CALM      29.93R FOG
SAINT CLOUD    FOG       52  52 100 CALM      29.92R VSB 1/4
MINNEAPOLIS    FAIR      60  57  89 CALM      29.93R
$$

  *****  WEATHER ACROSS SOUTH DAKOTA  *****

CITY           SKY/WX    TMP DP  RH WIND       PRES   REMARKS
SIOUX FALLS    FAIR      55  55 100 SW3       29.97R
BROOKINGS      CLOUDY    54  53  97 CALM      29.96R
WATERTOWN      FOG       51  51 100 CALM      29.94S VSB 1/4
HURON          FAIR      59  56  89 S6        29.93S
SISSETON         N/A     62  58  86 W3        29.90R
ABERDEEN       FAIR      50  50 100 S7        29.92S
MITCHELL       FAIR      56  56 100 CALM      29.95S
PIERRE         FAIR      59  54  83 SE9       29.88F
MOBRIDGE       FAIR      62  58  86 SE12      29.86F
RAPID CITY     FAIR      55  49  80 SE8       29.89F
$$

  *****  SOME WEATHER IN NEARBY STATES *****

CITY           SKY/WX    TMP DP  RH WIND       PRES   REMARKS
GLASGOW MT     FAIR      60  41  49 CALM      29.74S
GREAT FALLS MT FAIR      64  29  26 SW16      29.93R
CHEYENNE WY    FAIR      56  42  59 W10       30.14F
SCOTTSBLUFF NE FAIR      60  51  72 CALM      29.98F
OMAHA NE       FAIR      60  56  86 N3        29.96R
DES MOINES IA  FAIR      65  62  90 SE9       29.91S
DAVENPORT IA   FAIR      61  58  90 E6        29.94R
CHICAGO IL     FAIR      63  59  87 CALM      29.92R
EAU CLAIRE WI  FOG       55  55 100 CALM      29.92R VSB 1/4
LA CROSSE WI   FOG       62  61  96 S3        29.93S VSB 1/4
$$

  *****  SOME NATIONAL WEATHER *****

CITY           SKY/WX    TMP DP  RH WIND       PRES   REMARKS
LA GUARDIA NY  MOCLDY    76  72  87 NW8       29.81R
RALEIGH NC     FAIR      74  72  93 CALM      29.94R
ATLANTA GA     FAIR      69  65  86 NW6       30.00S
NEW ORLEANS LA FAIR      79  78  97 W3        30.00R
OKLAHOMA CITY  FAIR      72  71  97 S6        29.98S
ALBUQUERQUE NM MOCLDY    72  51  47 SE6       30.18S
SALT LAKE CITY FAIR      68  39  34 SE8       30.05F
LOS ANGELES CA CLOUDY    66  62  87 W3        29.94F
BOISE ID       FAIR      60  32  34 SE5       29.99S
SEATTLE WA     MOCLDY    62  49  62 NE12      30.17R
$$

*** WEATHER ACROSS MANITOBA...SASKATCHEWAN AND ONTARIO ***
                ***ONTARIO***

CITY           SKY/WX    TMP DP  RH WIND       PRES   REMARKS
GERALDTON      FOG       50  50 100 SW3       29.77S VSB 3/4
THUNDER BAY    MOCLDY    54  54 100 VRB2      29.79R
SIOUX LOOKOUT  PTCLDY    52  50  93 CALM      29.80R
TORONTO        PTCLDY    63  59  88 SW7       29.80R
BIG TROUT LK   CLOUDY    59  55  88 W5        29.65S
PICKLE LAKE    MOCLDY    57  54  88 W7        29.76
DRYDEN         CLEAR     57  55  94 W6        29.81S
KENORA         PTCLDY    61  57  88 SW5       29.82S
$$
                *** MANITOBA***

CITY           SKY/WX    TMP DP  RH WIND       PRES   REMARKS
BRANDON        PTCLDY    50  46  87 N5        29.76F
DAUPHIN        CLEAR     57  52  82 W2        29.71F
ISLAND LAKE    NOT AVBL
PILOT MOUND      N/A     50  48  93 S3          N/A
THE PAS        PTCLDY    57  52  82 VRB2      29.64F
THOMPSON       PTCLDY    52  52 100 NE3       29.63S
WINNIPEG       PTCLDY    55  52  88 SE3       29.78S
LYNN LAKE      CLOUDY    54  54 100 MISG      29.61S
CHURCHILL      CLOUDY    52  50  93 N10       29.64R
GILLAM         FOG       55  54  94 N6        29.65S VSB 1/8
$$
                ***SASKATCHEWAN***

CITY           SKY/WX    TMP DP  RH WIND       PRES   REMARKS
ESTEVAN        PTCLDY    66  52  59 S13G20    29.72F
KINDERSLEY     PTCLDY    55  46  71 N13G23    29.78R
LLOYDMINSTER   CLOUDY    52  48  87 W15G22    29.79R
PRINCE ALBERT  PTCLDY    57  50  77 NE5       29.62R
REGINA         NOT AVBL
YORKTON        PTCLDY    59  50  72 SE8       29.67F



USA.gov is the U.S. government's official web portal to all federal, state and local government web resources and services.